Voltar ao catálogo

ITUPSAT 1

AtivoRádio AmadorSSO
NORAD 35935·PAYLOAD·🇹🇷 Turkey

Lançado Sep 23, 2009 de Satish Dhawan Space Centre

Loading…

Próximas Passagens (próximas 24 horas)

TLE

AtualizadoSource: Space-Track

Época: Sep 13, 2026, 16:25 UTC

1 35935U 09051E   26256.68420965  .00000565  00000-0  12647-3 0  9990
2 35935  98.3950 164.6240 0006933 334.1895  25.8958 14.60549775901654

Acompanhe ITUPSAT 1 em tempo real com AllMySat

Download on the App Store